VA6NA Weather Reports


time (UTC)temp
C
wind
direction
speed
KPH
gust
KPH
rain 1hr
cm
rain 24hr
cm
rain mn
cm
humidity
%
barometer
mb
20260507164024 18 0.0 0.0 0.00 0.00 0.00 42 1012.5
20260507163024 17 0.0 0.0 0.00 0.00 0.00 42 1012.5
20260507162020 17 0.0 0.0 0.00 0.00 0.00 42 1012.5
20260507161022 18 0.0 0.0 0.00 0.00 0.00 41 1012.5
20260507160037 18 0.0 0.0 0.00 0.00 0.00 44 1012.4
20260507155018 17 0.0 0.0 0.00 0.00 0.00 45 1012.4
20260507154018 17 0.0 0.0 0.00 0.00 0.00 46 1012.4
20260507153025 16 0.0 0.0 0.00 0.00 0.00 47 1012.4
20260507152042 17 0.0 0.0 0.00 0.00 0.00 48 1012.3
20260507151016 17 0.0 0.0 0.00 0.00 0.00 49 1012.3
20260507150048 16 0.0 0.0 0.00 0.00 0.00 53 1012.4
20260507145030 15 0.0 0.0 0.00 0.00 0.00 54 1012.4
20260507144031 15 0.0 0.0 0.00 0.00 0.00 54 1012.5
20260507143046 15 0.0 0.0 0.00 0.00 0.00 57 1012.4
20260507142028 14 0.0 0.0 0.00 0.00 0.00 58 1012.3
20260507141023 13 0.0 0.0 0.00 0.00 0.00 59 1012.2
20260507140032 13 0.0 0.0 0.00 0.00 0.00 60 1012.1
20260507135032 13 0.0 0.0 0.00 0.00 0.00 60 1012.0
20260507134016 13 0.0 0.0 0.00 0.00 0.00 60 1012.0
20260507133016 13 0.0 0.0 0.00 0.00 0.00 62 1011.9
20260507132024 13 0.0 0.0 0.00 0.00 0.00 63 1011.8
20260507131019 13 0.0 0.0 0.00 0.00 0.00 64 1011.6
20260507130026 13 0.0 0.0 0.00 0.00 0.00 64 1011.6
20260507125026 12 0.0 0.0 0.00 0.00 0.00 65 1011.3
20260507124028 12 0.0 0.0 0.00 0.00 0.00 66 1011.4
20260507123023 12 0.0 0.0 0.00 0.00 0.00 67 1011.3
20260507122018 12 0.0 0.0 0.00 0.00 0.00 67 1011.1
20260507121216 12 0.0 0.0 0.00 0.00 0.00 67 1011.0
20260507120029 12 0.0 0.0 0.00 0.00 0.00 67 1010.9
20260507115030 12 0.0 0.0 0.00 0.00 0.00 66 1010.9
20260507114029 12 0.0 0.0 0.00 0.00 0.00 65 1010.7
20260507113049 13 0.0 0.0 0.00 0.00 0.00 65 1010.7
20260507112026 13 0.0 0.0 0.00 0.00 0.00 66 1010.7
20260507111021 13 0.0 0.0 0.00 0.00 0.00 66 1010.5
20260507110056 13 0.0 0.0 0.00 0.00 0.00 67 1010.2
20260507105017 13 0.0 0.0 0.00 0.00 0.00 67 1010.4
20260507104031 13 0.0 0.0 0.00 0.00 0.00 69 1010.4
20260507103048 12 0.0 0.0 0.00 0.00 0.00 70 1010.3
20260507102023 12 0.0 0.0 0.00 0.00 0.00 71 1010.2
20260507101019 12 0.0 0.0 0.00 0.00 0.00 71 1010.4
20260507100032 12 0.0 0.0 0.00 0.00 0.00 72 1010.2
20260507095029 11 0.0 0.0 0.00 0.00 0.00 72 1010.2
20260507094029 11 0.0 0.0 0.00 0.00 0.00 71 1010.3
20260507093030 12 0.0 0.0 0.00 0.00 0.00 71 1010.3
20260507092025 12 0.0 0.0 0.00 0.00 0.00 70 1010.2
20260507091027 12 0.0 0.0 0.00 0.00 0.00 70 1010.2
20260507090023 12 0.0 0.0 0.00 0.00 0.00 70 1010.2
20260507085017 12 0.0 0.0 0.00 0.00 0.00 69 1010.2
20260507084019 12 0.0 0.0 0.00 0.00 0.00 68 1010.2
20260507083031 13 0.0 0.0 0.00 0.00 0.00 67 1010.2
20260507082027 13 0.0 0.0 0.00 0.00 0.00 67 1010.2
20260507081028 13 0.0 0.0 0.00 0.00 0.00 66 1010.2
20260507080030 13 0.0 0.0 0.00 0.00 0.00 66 1010.2
20260507075031 13 0.0 0.0 0.00 0.00 0.00 65 1010.2
20260507074031 13 0.0 0.0 0.00 0.00 0.00 64 1010.1
20260507073032 13 0.0 0.0 0.00 0.00 0.00 64 1010.0
20260507072016 13 0.0 0.0 0.00 0.00 0.00 64 1010.0
20260507071016 13 0.0 0.0 0.00 0.00 0.00 63 1010.2
20260507070024 12 0.0 0.0 0.00 0.00 0.00 66 1010.2
20260507065019 12 0.0 0.0 0.00 0.00 0.00 67 1010.2
20260507064021 12 0.0 0.0 0.00 0.00 0.00 66 1010.2
20260507063017 12 0.0 0.0 0.00 0.00 0.00 64 1010.3
20260507062017 13 0.0 0.0 0.00 0.00 0.00 64 1010.4
20260507061037 13 0.0 0.0 0.00 0.00 0.00 62 1010.8
20260507060033 13 0.0 0.0 0.00 0.00 0.00 55 1010.6
20260507055034 14 0.0 0.0 0.00 0.00 0.00 57 1010.6
20260507054017 14 0.0 0.0 0.00 0.00 0.00 60 1010.5
20260507053030 15 0.0 0.0 0.00 0.00 0.00 60 1010.6
20260507052030 15 0.0 0.0 0.00 0.00 0.00 58 1010.8
20260507051025 15 0.0 0.0 0.00 0.00 0.00 58 1010.7
20260507050046 15 0.0 0.0 0.00 0.00 0.00 58 1010.4
20260507045021 15 0.0 0.0 0.00 0.00 0.00 57 1010.4
20260507044018 15 0.0 0.0 0.00 0.00 0.00 55 1010.2
20260507043031 15 0.0 0.0 0.00 0.00 0.00 54 1010.2
20260507042032 15 0.0 0.0 0.00 0.00 0.00 52 1010.1
20260507041033 16 0.0 0.0 0.00 0.00 0.00 49 1009.8
20260507040053 16 0.0 0.0 0.00 0.00 0.00 48 1009.6
20260507035017 17 0.0 0.0 0.00 0.00 0.00 47 1009.3
20260507034018 17 0.0 0.0 0.00 0.00 0.00 47 1009.4
20260507033051 17 0.0 0.0 0.00 0.00 0.00 47 1009.6
20260507032052 17 0.0 0.0 0.00 0.00 0.00 44 1009.8
20260507031027 17 0.0 0.0 0.00 0.00 0.00 44 1009.8
20260507030028 17 0.0 0.0 0.00 0.00 0.00 43 1009.7
20260507025023 17 0.0 0.0 0.00 0.00 0.00 39 1009.8
20260507024020 17 0.0 0.0 0.00 0.00 0.00 39 1009.7
20260507023047 17 0.0 0.0 0.00 0.00 0.00 38 1009.6
20260507022029 18 0.0 0.0 0.00 0.00 0.00 38 1009.5
20260507021019 18 0.0 0.0 0.00 0.00 0.00 37 1009.5
20260507020018 18 0.0 0.0 0.00 0.00 0.00 37 1009.3
20260507015021 18 0.0 0.0 0.00 0.00 0.00 37 1009.0
20260507014016 18 0.0 0.0 0.00 0.00 0.00 37 1008.9
20260507013017 19 0.0 0.0 0.00 0.00 0.00 36 1008.9
20260507012031 19 0.0 0.0 0.00 0.00 0.00 36 1008.9
20260507011032 19 0.0 0.0 0.00 0.00 0.00 35 1008.9
20260507010034 19 0.0 0.0 0.00 0.00 0.00 36 1008.9
20260507005028 20 0.0 0.0 0.00 0.00 0.00 35 1008.8
20260507004046 19 0.0 0.0 0.00 0.00 0.00 35 1008.6
20260507003020 19 0.0 0.0 0.00 0.00 0.00 35 1008.7
20260507002034 20 0.0 0.0 0.00 0.00 0.00 35 1008.8
20260507001016 20 0.0 0.0 0.00 0.00 0.00 34 1008.8
20260507000041 20 0.0 0.0 0.00 0.00 0.00 34 1008.6
20260506235018 20 0.0 0.0 0.00 0.00 0.00 33 1008.6
20260506234019 20 0.0 0.0 0.00 0.00 0.00 34 1008.7
20260506233020 20 0.0 0.0 0.00 0.00 0.00 34 1008.8
20260506232016 20 0.0 0.0 0.00 0.00 0.00 33 1008.8
20260506231017 20 0.0 0.0 0.00 0.00 0.00 34 1008.9
20260506230018 20 0.0 0.0 0.00 0.00 0.00 34 1009.0
20260506225018 20 0.0 0.0 0.00 0.00 0.00 34 1009.0
20260506224024 20 0.0 0.0 0.00 0.00 0.00 34 1009.1
20260506223045 20 0.0 0.0 0.00 0.00 0.00 33 1009.1
20260506222026 20 0.0 0.0 0.00 0.00 0.00 32 1009.2
20260506221022 21 0.0 0.0 0.00 0.00 0.00 32 1009.4
20260506220016 21 0.0 0.0 0.00 0.00 0.00 32 1009.6
20260506215017 20 0.0 0.0 0.00 0.00 0.00 32 1009.8
20260506214024 20 0.0 0.0 0.00 0.00 0.00 33 1010.0
20260506213019 20 0.0 0.0 0.00 0.00 0.00 33 1010.1
20260506212021 20 0.0 0.0 0.00 0.00 0.00 33 1010.2
20260506211022 20 0.0 0.0 0.00 0.00 0.00 32 1010.2
20260506210022 20 0.0 0.0 0.00 0.00 0.00 33 1010.5
20260506205024 20 0.0 0.0 0.00 0.00 0.00 34 1010.5
20260506204025 19 0.0 0.0 0.00 0.00 0.00 34 1010.5
20260506203026 18 0.0 0.0 0.00 0.00 0.00 35 1010.6
20260506202027 18 0.0 0.0 0.00 0.00 0.00 35 1010.7
20260506201023 18 0.0 0.0 0.00 0.00 0.00 35 1010.8
20260506200038 18 0.0 0.0 0.00 0.00 0.00 35 1010.9
20260506195018 18 0.0 0.0 0.00 0.00 0.00 34 1011.1
20260506194025 18 0.0 0.0 0.00 0.00 0.00 34 1011.2
20260506193021 18 0.0 0.0 0.00 0.00 0.00 35 1011.2
20260506192017 18 0.0 0.0 0.00 0.00 0.00 35 1011.3
20260506191024 18 0.0 0.0 0.00 0.00 0.00 36 1011.6
20260506190024 17 0.0 0.0 0.00 0.00 0.00 36 1011.6
20260506185026 17 0.0 0.0 0.00 0.00 0.00 37 1011.8
20260506184022 16 0.0 0.0 0.00 0.00 0.00 38 1011.9
20260506183017 16 0.0 0.0 0.00 0.00 0.00 38 1011.9
20260506182058 16 0.0 0.0 0.00 0.00 0.00 38 1011.8
20260506181032 16 0.0 0.0 0.00 0.00 0.00 38 1012.0
20260506180033 15 0.0 0.0 0.00 0.00 0.00 39 1012.0
20260506175047 15 0.0 0.0 0.00 0.00 0.00 39 1012.3
20260506174048 15 0.0 0.0 0.00 0.00 0.00 40 1012.4
20260506173043 15 0.0 0.0 0.00 0.00 0.00 40 1012.6
20260506172019 15 0.0 0.0 0.00 0.00 0.00 40 1012.7
20260506171032 15 0.0 0.0 0.00 0.00 0.00 41 1012.9
20260506170033 15 0.0 0.0 0.00 0.00 0.00 41 1012.9
20260506165016 14 0.0 0.0 0.00 0.00 0.00 42 1013.0